Other Surface Observations
Issued by NWS Charleston, SC

Current Version | Previous Version | Text Only | Print | Product List | Glossary On
Versions: 1 2 3 4 5 6 7 8 9 10 11 12 13 14 15 16 17 18 19 20 21 22 23 24 25 26 27 28 29 30 31 32 33 34 35 36 37 38 39 40 41 42 43 44 45 46 47 48 49 50
000
SXUS52 KCHS 031227
OSOCHS
MARINE OBSERVATIONS
NATIONAL WEATHER SERVICE CHARLESTON SC
800 AM EDT FRI JUL 03 2015

...DOWNTOWN CHARLESTON AND HARBOR...

CITY           SKY/WX    TMP DP  RH WIND       PRES   REMARKS
WATERFRONT PRK   N/A     74  71  90 SW6       30.00R
FORT JOHNSON   NOT AVBL

...LAKE MOULTRIE...

CITY           SKY/WX    TMP DP  RH WIND       PRES   REMARKS
PINOPOLIS      NOT AVBL

...LAKE AND SUPPLEMENTAL COASTAL OBSERVATIONS...

STATION/POSITION TIME  TEMP    WIND        PRES    WAVE   SWELL
                       AIR SEA DIR/SP/G            HT/PER HT/PER/DIR
                 (UTC) (F)     (DEG/KT/KT) (MB)    (FT/S) (FT/S/D)
FORT PULASKI     1200   76 83  220/  8/ 12 1017.9R
SAPELO ISLAND    1200   76     240/ 12     1018.0S
UPR LAKE MARION  NOT AVBL
WINYAH BAY       1100   73     230/  9     1015.0R
LAKE MURRAY      1200   76     220/ 10/ 14 1013.9R
ACE BASIN NERRS  NOT AVBL


...C-MAN AND BUOY OBSERVATIONS...

STATION/POSITION TIME  TEMP    WIND        PRES    WAVE   SWELL
                       AIR SEA DIR/SP/G            HT/PER HT/PER/DIR
                 (UTC) (F)     (DEG/KT/KT) (MB)    (FT/S) (FT/S/D)
BUOY 41004       1150   80 81  230/ 19/ 21 1015.8R   5/ 6   2/ 8
BUOY 41008       1150   78 78  250/ 14/ 16 1017.9R   3/ 8   2/110/ 8
FOLLY BEACH CMAN 1200   74     240/ 12/ 16 1017.1R
CAPERS NS BUOY   1108   81     250/ 19/ 25 1016.3R
FRIPP NS BUOY    1100   79     250/ 17/ 21 1016.4R
5E ST. MARYS GA  1121      76                N/A     2/ 8


STATION/POSITION TIME  TEMP    WIND        PRES    WAVE   SWELL
                       AIR SEA DIR/SP/G            HT/PER HT/PER/DIR
                 (UTC) (F)     (DEG/KT/KT) (MB)    (FT/S) (FT/S/D)
FRYING PAN BUOY  1150   80 79  230/ 19/ 21 1015.9R   6/ 6
BUOY 41025       1150   78 83  270/ 16/ 17 1014.7R   6/ 8   3/210/ 8
CAPE LOOKOUT NC  1200   76     250/ 15/ 18 1015.2R
BUOY 41002       1150   82 80  230/ 17/ 21 1018.1R   7/ 6   2/100/15
BUOY 41010       1120   83 84  200/ 10/ 12 1019.0R
ST AUGUSTINE FL  1200   77 73  230/  5/  6 1019.7R

$$



USA.gov is the U.S. government's official web portal to all federal, state and local government web resources and services.